Year,Month,Day,Hour,Minute,Value (Times are PST for temperature in C)
2015,06,21,00,00,14.40
2015,06,21,00,01,14.40
2015,06,21,00,02,14.40
2015,06,21,00,03,14.40
2015,06,21,00,04,14.50
2015,06,21,00,05,14.50
2015,06,21,00,06,14.60
2015,06,21,00,07,14.60
2015,06,21,00,08,14.70
2015,06,21,00,09,14.80
2015,06,21,00,10,14.80
2015,06,21,00,11,14.80
2015,06,21,00,12,14.90
2015,06,21,00,13,14.90
2015,06,21,00,14,14.90
2015,06,21,00,15,14.90
2015,06,21,00,16,14.90
2015,06,21,00,17,15.00
2015,06,21,00,18,15.00
2015,06,21,00,19,15.00
2015,06,21,00,20,15.10
2015,06,21,00,21,15.10
2015,06,21,00,22,15.20
2015,06,21,00,23,15.20
2015,06,21,00,24,15.20
2015,06,21,00,25,15.20
2015,06,21,00,26,15.20
2015,06,21,00,27,15.20
2015,06,21,00,28,15.10
2015,06,21,00,29,15.10
2015,06,21,00,30,15.10
2015,06,21,00,31,15.10
2015,06,21,00,32,15.10
2015,06,21,00,33,15.10
2015,06,21,00,34,15.10
2015,06,21,00,35,15.00
2015,06,21,00,36,15.00
2015,06,21,00,37,15.00
2015,06,21,00,38,15.00
2015,06,21,00,39,15.00
2015,06,21,00,40,15.00
2015,06,21,00,41,15.00
2015,06,21,00,42,14.90
2015,06,21,00,43,14.90
2015,06,21,00,44,14.90
2015,06,21,00,45,14.90
2015,06,21,00,46,14.90
2015,06,21,00,47,14.80
2015,06,21,00,48,14.70
2015,06,21,00,49,14.70
2015,06,21,00,50,14.60
2015,06,21,00,51,14.50
2015,06,21,00,52,14.50
2015,06,21,00,53,14.40
2015,06,21,00,54,14.40
2015,06,21,00,55,14.40
2015,06,21,00,56,14.30
2015,06,21,00,57,14.30
2015,06,21,00,58,14.30
2015,06,21,00,59,14.30
2015,06,21,01,00,14.20
2015,06,21,01,01,14.20
2015,06,21,01,02,14.20
2015,06,21,01,03,14.20
2015,06,21,01,04,14.20
2015,06,21,01,05,14.20
2015,06,21,01,06,14.20
2015,06,21,01,07,14.20
2015,06,21,01,08,14.20
2015,06,21,01,09,14.20
2015,06,21,01,10,14.20
2015,06,21,01,11,14.20
2015,06,21,01,12,14.20
2015,06,21,01,13,14.10
2015,06,21,01,14,14.10
2015,06,21,01,15,14.10
2015,06,21,01,16,14.10
2015,06,21,01,17,14.20
2015,06,21,01,18,14.20
2015,06,21,01,19,14.20
2015,06,21,01,20,14.20
2015,06,21,01,21,14.20
2015,06,21,01,22,14.20
2015,06,21,01,23,14.20
2015,06,21,01,24,14.10
2015,06,21,01,25,14.10
2015,06,21,01,26,14.10
2015,06,21,01,27,14.10
2015,06,21,01,28,14.10
2015,06,21,01,29,14.10
2015,06,21,01,30,14.10
2015,06,21,01,31,14.10
2015,06,21,01,32,14.10
2015,06,21,01,33,14.10
2015,06,21,01,34,14.10
2015,06,21,01,35,14.10
2015,06,21,01,36,14.10
2015,06,21,01,37,14.10
2015,06,21,01,38,14.10
2015,06,21,01,39,14.10
2015,06,21,01,40,14.10
2015,06,21,01,41,14.20
2015,06,21,01,42,14.20
2015,06,21,01,43,14.20
2015,06,21,01,44,14.20
2015,06,21,01,45,14.20
2015,06,21,01,46,14.20
2015,06,21,01,47,14.20
2015,06,21,01,48,14.20
2015,06,21,01,49,14.20
2015,06,21,01,50,14.20
2015,06,21,01,51,14.20
2015,06,21,01,52,14.20
2015,06,21,01,53,14.20
2015,06,21,01,54,14.20
2015,06,21,01,55,14.30
2015,06,21,01,56,14.30
2015,06,21,01,57,14.20
2015,06,21,01,58,14.20
2015,06,21,01,59,14.20
2015,06,21,02,00,14.30
2015,06,21,02,01,14.30
2015,06,21,02,02,14.30
2015,06,21,02,03,14.30
2015,06,21,02,04,14.30
2015,06,21,02,05,14.30
2015,06,21,02,06,14.40
2015,06,21,02,07,14.40
2015,06,21,02,08,14.40
2015,06,21,02,09,14.50
2015,06,21,02,10,14.50
2015,06,21,02,11,14.60
2015,06,21,02,12,14.60
2015,06,21,02,13,14.60
2015,06,21,02,14,14.60
2015,06,21,02,15,14.60
2015,06,21,02,16,14.60
2015,06,21,02,17,14.60
2015,06,21,02,18,14.50
2015,06,21,02,19,14.50
2015,06,21,02,20,14.40
2015,06,21,02,21,14.40
2015,06,21,02,22,14.40
2015,06,21,02,23,14.30
2015,06,21,02,24,14.30
2015,06,21,02,25,14.30
2015,06,21,02,26,14.20
2015,06,21,02,27,14.30
2015,06,21,02,28,14.30
2015,06,21,02,29,14.30
2015,06,21,02,30,14.30
2015,06,21,02,31,14.30
2015,06,21,02,32,14.30
2015,06,21,02,33,14.30
2015,06,21,02,34,14.30
2015,06,21,02,35,14.30
2015,06,21,02,36,14.30
2015,06,21,02,37,14.30
2015,06,21,02,38,14.30
2015,06,21,02,39,14.20
2015,06,21,02,40,14.20
2015,06,21,02,41,14.20
2015,06,21,02,42,14.20
2015,06,21,02,43,14.20
2015,06,21,02,44,14.10
2015,06,21,02,45,14.10
2015,06,21,02,46,14.00
2015,06,21,02,47,14.00
2015,06,21,02,48,13.90
2015,06,21,02,49,13.90
2015,06,21,02,50,13.80
2015,06,21,02,51,13.80
2015,06,21,02,52,13.70
2015,06,21,02,53,13.70
2015,06,21,02,54,13.70
2015,06,21,02,55,13.60
2015,06,21,02,56,13.60
2015,06,21,02,57,13.60
2015,06,21,02,58,13.60
2015,06,21,02,59,13.60
2015,06,21,03,00,13.60
2015,06,21,03,01,13.60
2015,06,21,03,02,13.50
2015,06,21,03,03,13.50
2015,06,21,03,04,13.50
2015,06,21,03,05,13.50
2015,06,21,03,06,13.50
2015,06,21,03,07,13.50
2015,06,21,03,08,13.50
2015,06,21,03,09,13.40
2015,06,21,03,10,13.40
2015,06,21,03,11,13.40
2015,06,21,03,12,13.40
2015,06,21,03,13,13.30
2015,06,21,03,14,13.30
2015,06,21,03,15,13.30
2015,06,21,03,16,13.30
2015,06,21,03,17,13.30
2015,06,21,03,18,13.30
2015,06,21,03,19,13.30
2015,06,21,03,20,13.30
2015,06,21,03,21,13.30
2015,06,21,03,22,13.30
2015,06,21,03,23,13.30
2015,06,21,03,24,13.30
2015,06,21,03,25,13.30
2015,06,21,03,26,13.30
2015,06,21,03,27,13.30
2015,06,21,03,28,13.30
2015,06,21,03,29,13.30
2015,06,21,03,30,13.30
2015,06,21,03,31,13.30
2015,06,21,03,32,13.30
2015,06,21,03,33,13.30
2015,06,21,03,34,13.30
2015,06,21,03,35,13.30
2015,06,21,03,36,13.20
2015,06,21,03,37,13.20
2015,06,21,03,38,13.20
2015,06,21,03,39,13.20
2015,06,21,03,40,13.20
2015,06,21,03,41,13.20
2015,06,21,03,42,13.20
2015,06,21,03,43,13.20
2015,06,21,03,44,13.20
2015,06,21,03,45,13.20
2015,06,21,03,46,13.20
2015,06,21,03,47,13.10
2015,06,21,03,48,13.10
2015,06,21,03,49,13.10
2015,06,21,03,50,13.10
2015,06,21,03,51,13.10
2015,06,21,03,52,13.10
2015,06,21,03,53,13.10
2015,06,21,03,54,13.10
2015,06,21,03,55,13.10
2015,06,21,03,56,13.10
2015,06,21,03,57,13.10
2015,06,21,03,58,13.10
2015,06,21,03,59,13.10
2015,06,21,04,00,13.10
2015,06,21,04,01,13.10
2015,06,21,04,02,13.10
2015,06,21,04,03,13.10
2015,06,21,04,04,13.10
2015,06,21,04,05,13.10
2015,06,21,04,06,13.10
2015,06,21,04,07,13.20
2015,06,21,04,08,13.20
2015,06,21,04,09,13.20
2015,06,21,04,10,13.20
2015,06,21,04,11,13.10
2015,06,21,04,12,13.10
2015,06,21,04,13,13.10
2015,06,21,04,14,13.10
2015,06,21,04,15,13.10
2015,06,21,04,16,13.10
2015,06,21,04,17,13.10
2015,06,21,04,18,13.10
2015,06,21,04,19,13.10
2015,06,21,04,20,13.10
2015,06,21,04,21,13.10
2015,06,21,04,22,13.10
2015,06,21,04,23,13.10
2015,06,21,04,24,13.10
2015,06,21,04,25,13.10
2015,06,21,04,26,13.10
2015,06,21,04,27,13.00
2015,06,21,04,28,13.00
2015,06,21,04,29,12.90
2015,06,21,04,30,12.90
2015,06,21,04,31,12.90
2015,06,21,04,32,12.90
2015,06,21,04,33,12.90
2015,06,21,04,34,12.90
2015,06,21,04,35,12.90
2015,06,21,04,36,12.90
2015,06,21,04,37,12.90
2015,06,21,04,38,12.80
2015,06,21,04,39,12.80
2015,06,21,04,40,12.80
2015,06,21,04,41,12.80
2015,06,21,04,42,12.70
2015,06,21,04,43,12.70
2015,06,21,04,44,12.70
2015,06,21,04,45,12.70
2015,06,21,04,46,12.70
2015,06,21,04,47,12.70
2015,06,21,04,48,12.70
2015,06,21,04,49,12.70
2015,06,21,04,50,12.70
2015,06,21,04,51,12.70
2015,06,21,04,52,12.70
2015,06,21,04,53,12.70
2015,06,21,04,54,12.60
2015,06,21,04,55,12.60
2015,06,21,04,56,12.60
2015,06,21,04,57,12.60
2015,06,21,04,58,12.60
2015,06,21,04,59,12.60
2015,06,21,05,00,12.60
2015,06,21,05,01,12.60
2015,06,21,05,02,12.60
2015,06,21,05,03,12.60
2015,06,21,05,04,12.60
2015,06,21,05,05,12.50
2015,06,21,05,06,12.50
2015,06,21,05,07,12.50
2015,06,21,05,08,12.40
2015,06,21,05,09,12.40
2015,06,21,05,10,12.40
2015,06,21,05,11,12.40
2015,06,21,05,12,12.40
2015,06,21,05,13,12.30
2015,06,21,05,14,12.30
2015,06,21,05,15,12.30
2015,06,21,05,16,12.20
2015,06,21,05,17,12.20
2015,06,21,05,18,12.10
2015,06,21,05,19,12.10
2015,06,21,05,20,12.10
2015,06,21,05,21,12.10
2015,06,21,05,22,12.10
2015,06,21,05,23,12.10
2015,06,21,05,24,12.10
2015,06,21,05,25,12.10
2015,06,21,05,26,12.00
2015,06,21,05,27,12.00
2015,06,21,05,28,11.90
2015,06,21,05,29,11.80
2015,06,21,05,30,11.80
2015,06,21,05,31,11.80
2015,06,21,05,32,11.80
2015,06,21,05,33,11.80
2015,06,21,05,34,11.80
2015,06,21,05,35,11.80
2015,06,21,05,36,11.80
2015,06,21,05,37,11.80
2015,06,21,05,38,11.80
2015,06,21,05,39,11.80
2015,06,21,05,40,11.90
2015,06,21,05,41,11.90
2015,06,21,05,42,11.90
2015,06,21,05,43,11.90
2015,06,21,05,44,11.90
2015,06,21,05,45,11.90
2015,06,21,05,46,12.00
2015,06,21,05,47,12.10
2015,06,21,05,48,12.10
2015,06,21,05,49,12.10
2015,06,21,05,50,12.20
2015,06,21,05,51,12.20
2015,06,21,05,52,12.20
2015,06,21,05,53,12.20
2015,06,21,05,54,12.30
2015,06,21,05,55,12.30
2015,06,21,05,56,12.30
2015,06,21,05,57,12.30
2015,06,21,05,58,12.30
2015,06,21,05,59,12.40
2015,06,21,06,00,12.40
2015,06,21,06,01,12.50
2015,06,21,06,02,12.50
2015,06,21,06,03,12.60
2015,06,21,06,04,12.60
2015,06,21,06,05,12.60
2015,06,21,06,06,12.70
2015,06,21,06,07,12.70
2015,06,21,06,08,12.70
2015,06,21,06,09,12.70
2015,06,21,06,10,12.70
2015,06,21,06,11,12.80
2015,06,21,06,12,12.80
2015,06,21,06,13,12.80
2015,06,21,06,14,12.80
2015,06,21,06,15,12.90
2015,06,21,06,16,12.90
2015,06,21,06,17,12.90
2015,06,21,06,18,13.00
2015,06,21,06,19,13.00
2015,06,21,06,20,13.10
2015,06,21,06,21,13.20
2015,06,21,06,22,13.20
2015,06,21,06,23,13.20
2015,06,21,06,24,13.30
2015,06,21,06,25,13.30
2015,06,21,06,26,13.30
2015,06,21,06,27,13.40
2015,06,21,06,28,13.40
2015,06,21,06,29,13.50
2015,06,21,06,30,13.50
2015,06,21,06,31,13.60
2015,06,21,06,32,13.70
2015,06,21,06,33,13.70
2015,06,21,06,34,13.80
2015,06,21,06,35,13.80
2015,06,21,06,36,13.80
2015,06,21,06,37,13.90
2015,06,21,06,38,13.90
2015,06,21,06,39,14.00
2015,06,21,06,40,14.00
2015,06,21,06,41,14.10
2015,06,21,06,42,14.10
2015,06,21,06,43,14.10
2015,06,21,06,44,14.10
2015,06,21,06,45,14.20
2015,06,21,06,46,14.20
2015,06,21,06,47,14.20
2015,06,21,06,48,14.30
2015,06,21,06,49,14.30
2015,06,21,06,50,14.30
2015,06,21,06,51,14.40
2015,06,21,06,52,14.40
2015,06,21,06,53,14.40
2015,06,21,06,54,14.50
2015,06,21,06,55,14.50
2015,06,21,06,56,14.60
2015,06,21,06,57,14.60
2015,06,21,06,58,14.60
2015,06,21,06,59,14.60
2015,06,21,07,00,14.70
2015,06,21,07,01,14.70
2015,06,21,07,02,14.70
2015,06,21,07,03,14.70
2015,06,21,07,04,14.70
2015,06,21,07,05,14.80
2015,06,21,07,06,14.80
2015,06,21,07,07,14.80
2015,06,21,07,08,14.80
2015,06,21,07,09,14.80
2015,06,21,07,10,14.80
2015,06,21,07,11,14.80
2015,06,21,07,12,14.80
2015,06,21,07,13,14.90
2015,06,21,07,14,14.90
2015,06,21,07,15,14.90
2015,06,21,07,16,14.90
2015,06,21,07,17,14.90
2015,06,21,07,18,14.90
2015,06,21,07,19,14.90
2015,06,21,07,20,14.90
2015,06,21,07,21,14.90
2015,06,21,07,22,14.90
2015,06,21,07,23,15.00
2015,06,21,07,24,15.00
2015,06,21,07,25,15.00
2015,06,21,07,26,15.00
2015,06,21,07,27,15.00
2015,06,21,07,28,15.00
2015,06,21,07,29,15.10
2015,06,21,07,30,15.10
2015,06,21,07,31,15.10
2015,06,21,07,32,15.10
2015,06,21,07,33,15.10
2015,06,21,07,34,15.10
2015,06,21,07,35,15.10
2015,06,21,07,36,15.10
2015,06,21,07,37,15.20
2015,06,21,07,38,15.20
2015,06,21,07,39,15.20
2015,06,21,07,40,15.10
2015,06,21,07,41,15.10
2015,06,21,07,42,15.10
2015,06,21,07,43,15.10
2015,06,21,07,44,15.10
2015,06,21,07,45,15.10
2015,06,21,07,46,15.20
2015,06,21,07,47,15.20
2015,06,21,07,48,15.20
2015,06,21,07,49,15.20
2015,06,21,07,50,15.20
2015,06,21,07,51,15.20
2015,06,21,07,52,15.20
2015,06,21,07,53,15.30
2015,06,21,07,54,15.30
2015,06,21,07,55,15.30
2015,06,21,07,56,15.30
2015,06,21,07,57,15.40
2015,06,21,07,58,15.40
2015,06,21,07,59,15.40
2015,06,21,08,00,15.40
2015,06,21,08,01,15.40
2015,06,21,08,02,15.40
2015,06,21,08,03,15.30
2015,06,21,08,04,15.30
2015,06,21,08,05,15.40
2015,06,21,08,06,15.40
2015,06,21,08,07,15.50
2015,06,21,08,08,15.60
2015,06,21,08,09,15.60
2015,06,21,08,10,15.70
2015,06,21,08,11,15.70
2015,06,21,08,12,15.70
2015,06,21,08,13,15.80
2015,06,21,08,14,15.80
2015,06,21,08,15,15.80
2015,06,21,08,16,15.80
2015,06,21,08,17,15.90
2015,06,21,08,18,15.90
2015,06,21,08,19,15.90
2015,06,21,08,20,15.90
2015,06,21,08,21,15.90
2015,06,21,08,22,15.90
2015,06,21,08,23,15.90
2015,06,21,08,24,15.90
2015,06,21,08,25,15.90
2015,06,21,08,26,15.90
2015,06,21,08,27,15.90
2015,06,21,08,28,15.90
2015,06,21,08,29,15.90
2015,06,21,08,30,15.90
2015,06,21,08,31,15.90
2015,06,21,08,32,15.90
2015,06,21,08,33,15.90
2015,06,21,08,34,15.90
2015,06,21,08,35,15.90
2015,06,21,08,36,15.90
2015,06,21,08,37,15.90
2015,06,21,08,38,15.90
2015,06,21,08,39,16.00
2015,06,21,08,40,16.10
2015,06,21,08,41,16.10
2015,06,21,08,42,16.20
2015,06,21,08,43,16.20
2015,06,21,08,44,16.20
2015,06,21,08,45,16.20
2015,06,21,08,46,16.20
2015,06,21,08,47,16.20
2015,06,21,08,48,16.20
2015,06,21,08,49,16.20
2015,06,21,08,50,16.20
2015,06,21,08,51,16.20
2015,06,21,08,52,16.20
2015,06,21,08,53,16.20
2015,06,21,08,54,16.30
2015,06,21,08,55,16.30
2015,06,21,08,56,16.30
2015,06,21,08,57,16.30
2015,06,21,08,58,16.30
2015,06,21,08,59,16.30
2015,06,21,09,00,16.40
2015,06,21,09,01,16.40
2015,06,21,09,02,16.50
2015,06,21,09,03,16.60
2015,06,21,09,04,16.60
2015,06,21,09,05,16.60
2015,06,21,09,06,16.60
2015,06,21,09,07,16.60
2015,06,21,09,08,16.60
2015,06,21,09,09,16.70
2015,06,21,09,10,16.70
2015,06,21,09,11,16.70
2015,06,21,09,12,16.70
2015,06,21,09,13,16.80
2015,06,21,09,14,16.80
2015,06,21,09,15,16.80
2015,06,21,09,16,16.80
2015,06,21,09,17,16.80
2015,06,21,09,18,16.80
2015,06,21,09,19,16.80
2015,06,21,09,20,16.80
2015,06,21,09,21,16.90
2015,06,21,09,22,16.90
2015,06,21,09,23,16.90
2015,06,21,09,24,17.00
2015,06,21,09,25,17.10
2015,06,21,09,26,17.10
2015,06,21,09,27,17.20
2015,06,21,09,28,17.20
2015,06,21,09,29,17.30
2015,06,21,09,30,17.30
2015,06,21,09,31,17.30
2015,06,21,09,32,17.30
2015,06,21,09,33,17.30
2015,06,21,09,34,17.30
2015,06,21,09,35,17.30
2015,06,21,09,36,17.20
2015,06,21,09,37,17.20
2015,06,21,09,38,17.30
2015,06,21,09,39,17.30
2015,06,21,09,40,17.40
2015,06,21,09,41,17.40
2015,06,21,09,42,17.40
2015,06,21,09,43,17.40
2015,06,21,09,44,17.50
2015,06,21,09,45,17.50
2015,06,21,09,46,17.60
2015,06,21,09,47,17.60
2015,06,21,09,48,17.60
2015,06,21,09,49,17.60
2015,06,21,09,50,17.60
2015,06,21,09,51,17.60
2015,06,21,09,52,17.60
2015,06,21,09,53,17.60
2015,06,21,09,54,17.70
2015,06,21,09,55,17.70
2015,06,21,09,56,17.80
2015,06,21,09,57,17.80
2015,06,21,09,58,17.90
2015,06,21,09,59,17.90
2015,06,21,10,00,18.00
2015,06,21,10,01,18.00
2015,06,21,10,02,17.90
2015,06,21,10,03,17.90
2015,06,21,10,04,17.90
2015,06,21,10,05,17.90
2015,06,21,10,06,17.90
2015,06,21,10,07,17.90
2015,06,21,10,08,17.90
2015,06,21,10,09,18.00
2015,06,21,10,10,18.00
2015,06,21,10,11,18.10
2015,06,21,10,12,18.10
2015,06,21,10,13,18.10
2015,06,21,10,14,18.10
2015,06,21,10,15,18.10
2015,06,21,10,16,18.20
2015,06,21,10,17,18.20
2015,06,21,10,18,18.20
2015,06,21,10,19,18.20
2015,06,21,10,20,18.20
2015,06,21,10,21,18.20
2015,06,21,10,22,18.30
2015,06,21,10,23,18.30
2015,06,21,10,24,18.20
2015,06,21,10,25,18.20
2015,06,21,10,26,18.20
2015,06,21,10,27,18.20
2015,06,21,10,28,18.30
2015,06,21,10,29,18.30
2015,06,21,10,30,18.30
2015,06,21,10,31,18.30
2015,06,21,10,32,18.30
2015,06,21,10,33,18.30
2015,06,21,10,34,18.30
2015,06,21,10,35,18.30
2015,06,21,10,36,18.40
2015,06,21,10,37,18.50
2015,06,21,10,38,18.50
2015,06,21,10,39,18.60
2015,06,21,10,40,18.70
2015,06,21,10,41,18.70
2015,06,21,10,42,18.60
2015,06,21,10,43,18.60
2015,06,21,10,44,18.60
2015,06,21,10,45,18.50
2015,06,21,10,46,18.50
2015,06,21,10,47,18.40
2015,06,21,10,48,18.40
2015,06,21,10,49,18.40
2015,06,21,10,50,18.50
2015,06,21,10,51,18.50
2015,06,21,10,52,18.60
2015,06,21,10,53,18.70
2015,06,21,10,54,18.60
2015,06,21,10,55,18.60
2015,06,21,10,56,18.60
2015,06,21,10,57,18.60
2015,06,21,10,58,18.60
2015,06,21,10,59,18.60
2015,06,21,11,00,18.60
2015,06,21,11,01,18.60
2015,06,21,11,02,18.60
2015,06,21,11,03,18.60
2015,06,21,11,04,18.60
2015,06,21,11,05,18.60
2015,06,21,11,06,18.70
2015,06,21,11,07,18.70
2015,06,21,11,08,18.80
2015,06,21,11,09,18.80
2015,06,21,11,10,18.80
2015,06,21,11,11,18.80
2015,06,21,11,12,18.90
2015,06,21,11,13,18.90
2015,06,21,11,14,18.90
2015,06,21,11,15,18.90
2015,06,21,11,16,18.80
2015,06,21,11,17,18.80
2015,06,21,11,18,18.80
2015,06,21,11,19,18.90
2015,06,21,11,20,19.00
2015,06,21,11,21,19.00
2015,06,21,11,22,19.10
2015,06,21,11,23,19.20
2015,06,21,11,24,19.30
2015,06,21,11,25,19.30
2015,06,21,11,26,19.40
2015,06,21,11,27,19.50
2015,06,21,11,28,19.60
2015,06,21,11,29,19.60
2015,06,21,11,30,19.60
2015,06,21,11,31,19.60
2015,06,21,11,32,19.70
2015,06,21,11,33,19.70
2015,06,21,11,34,19.80
2015,06,21,11,35,19.90
2015,06,21,11,36,20.00
2015,06,21,11,37,20.00
2015,06,21,11,38,20.00
2015,06,21,11,39,20.10
2015,06,21,11,40,20.10
2015,06,21,11,41,20.10
2015,06,21,11,42,20.20
2015,06,21,11,43,20.10
2015,06,21,11,44,20.10
2015,06,21,11,45,20.10
2015,06,21,11,46,20.00
2015,06,21,11,47,20.00
2015,06,21,11,48,19.90
2015,06,21,11,49,19.80
2015,06,21,11,50,19.80
2015,06,21,11,51,19.80
2015,06,21,11,52,19.80
2015,06,21,11,53,19.80
2015,06,21,11,54,19.80
2015,06,21,11,55,19.80
2015,06,21,11,56,19.80
2015,06,21,11,57,19.90
2015,06,21,11,58,19.80
2015,06,21,11,59,19.90
2015,06,21,12,00,19.90
2015,06,21,12,01,20.00
2015,06,21,12,02,20.10
2015,06,21,12,03,20.20
2015,06,21,12,04,20.20
2015,06,21,12,05,20.30
2015,06,21,12,06,20.30
2015,06,21,12,07,20.40
2015,06,21,12,08,20.40
2015,06,21,12,09,20.30
2015,06,21,12,10,20.30
2015,06,21,12,11,20.30
2015,06,21,12,12,20.20
2015,06,21,12,13,20.20
2015,06,21,12,14,20.20
2015,06,21,12,15,20.20
2015,06,21,12,16,20.20
2015,06,21,12,17,20.20
2015,06,21,12,18,20.10
2015,06,21,12,19,20.10
2015,06,21,12,20,20.10
2015,06,21,12,21,20.10
2015,06,21,12,22,20.20
2015,06,21,12,23,20.30
2015,06,21,12,24,20.40
2015,06,21,12,25,20.40
2015,06,21,12,26,20.50
2015,06,21,12,27,20.50
2015,06,21,12,28,20.50
2015,06,21,12,29,20.60
2015,06,21,12,30,20.60
2015,06,21,12,31,20.60
2015,06,21,12,32,20.60
2015,06,21,12,33,20.70
2015,06,21,12,34,20.70
2015,06,21,12,35,20.80
2015,06,21,12,36,20.80
2015,06,21,12,37,20.90
2015,06,21,12,38,20.90
2015,06,21,12,39,20.90
2015,06,21,12,40,20.90
2015,06,21,12,41,21.00
2015,06,21,12,42,21.00
2015,06,21,12,43,21.00
2015,06,21,12,44,21.10
2015,06,21,12,45,21.20
2015,06,21,12,46,21.10
2015,06,21,12,47,21.10
2015,06,21,12,48,21.00
2015,06,21,12,49,21.00
2015,06,21,12,50,20.90
2015,06,21,12,51,20.80
2015,06,21,12,52,20.70
2015,06,21,12,53,20.60
2015,06,21,12,54,20.50
2015,06,21,12,55,20.50
2015,06,21,12,56,20.60
2015,06,21,12,57,20.70
2015,06,21,12,58,20.70
2015,06,21,12,59,20.70
2015,06,21,13,00,20.70
2015,06,21,13,01,20.70
2015,06,21,13,02,20.70
2015,06,21,13,03,20.70
2015,06,21,13,04,20.70
2015,06,21,13,05,20.70
2015,06,21,13,06,20.60
2015,06,21,13,07,20.60
2015,06,21,13,08,20.70
2015,06,21,13,09,20.70
2015,06,21,13,10,20.70
2015,06,21,13,11,20.70
2015,06,21,13,12,20.70
2015,06,21,13,13,20.70
2015,06,21,13,14,20.70
2015,06,21,13,15,20.70
2015,06,21,13,16,20.80
2015,06,21,13,17,20.80
2015,06,21,13,18,20.90
2015,06,21,13,19,20.90
2015,06,21,13,20,20.90
2015,06,21,13,21,20.90
2015,06,21,13,22,21.00
2015,06,21,13,23,21.10
2015,06,21,13,24,21.20
2015,06,21,13,25,21.20
2015,06,21,13,26,21.20
2015,06,21,13,27,21.20
2015,06,21,13,28,21.30
2015,06,21,13,29,21.30
2015,06,21,13,30,21.40
2015,06,21,13,31,21.40
2015,06,21,13,32,21.40
2015,06,21,13,33,21.40
2015,06,21,13,34,21.40
2015,06,21,13,35,21.30
2015,06,21,13,36,21.40
2015,06,21,13,37,21.50
2015,06,21,13,38,21.50
2015,06,21,13,39,21.60
2015,06,21,13,40,21.60
2015,06,21,13,41,21.60
2015,06,21,13,42,21.70
2015,06,21,13,43,21.80
2015,06,21,13,44,21.80
2015,06,21,13,45,21.80
2015,06,21,13,46,21.90
2015,06,21,13,47,21.90
2015,06,21,13,48,21.90
2015,06,21,13,49,21.90
2015,06,21,13,50,21.90
2015,06,21,13,51,21.90
2015,06,21,13,52,21.90
2015,06,21,13,53,21.90
2015,06,21,13,54,21.80
2015,06,21,13,55,21.80
2015,06,21,13,56,21.80
2015,06,21,13,57,21.80
2015,06,21,13,58,21.80
2015,06,21,13,59,21.80
2015,06,21,14,00,21.80
2015,06,21,14,01,21.80
2015,06,21,14,02,21.80
2015,06,21,14,03,21.80
2015,06,21,14,04,21.80
2015,06,21,14,05,21.80
2015,06,21,14,06,21.90
2015,06,21,14,07,21.90
2015,06,21,14,08,22.00
2015,06,21,14,09,22.00
2015,06,21,14,10,22.10
2015,06,21,14,11,22.10
2015,06,21,14,12,22.20
2015,06,21,14,13,22.30
2015,06,21,14,14,22.30
2015,06,21,14,15,22.30
2015,06,21,14,16,22.30
2015,06,21,14,17,22.40
2015,06,21,14,18,22.40
2015,06,21,14,19,22.40
2015,06,21,14,20,22.40
2015,06,21,14,21,22.30
2015,06,21,14,22,22.30
2015,06,21,14,23,22.30
2015,06,21,14,24,22.30
2015,06,21,14,25,22.30
2015,06,21,14,26,22.40
2015,06,21,14,27,22.40
2015,06,21,14,28,22.50
2015,06,21,14,29,22.50
2015,06,21,14,30,22.60
2015,06,21,14,31,22.70
2015,06,21,14,32,22.70
2015,06,21,14,33,22.80
2015,06,21,14,34,22.70
2015,06,21,14,35,22.70
2015,06,21,14,36,22.70
2015,06,21,14,37,22.70
2015,06,21,14,38,22.70
2015,06,21,14,39,22.70
2015,06,21,14,40,22.70
2015,06,21,14,41,22.70
2015,06,21,14,42,22.80
2015,06,21,14,43,22.90
2015,06,21,14,44,23.00
2015,06,21,14,45,23.10
2015,06,21,14,46,23.10
2015,06,21,14,47,23.00
2015,06,21,14,48,22.90
2015,06,21,14,49,22.90
2015,06,21,14,50,23.00
2015,06,21,14,51,23.00
2015,06,21,14,52,23.00
2015,06,21,14,53,23.00
2015,06,21,14,54,23.10
2015,06,21,14,55,23.20
2015,06,21,14,56,23.20
2015,06,21,14,57,23.30
2015,06,21,14,58,23.30
2015,06,21,14,59,23.30
2015,06,21,15,00,23.30
2015,06,21,15,01,23.30
2015,06,21,15,02,23.40
2015,06,21,15,03,23.40
2015,06,21,15,04,23.40
2015,06,21,15,05,23.40
2015,06,21,15,06,23.40
2015,06,21,15,07,23.40
2015,06,21,15,08,23.40
2015,06,21,15,09,23.40
2015,06,21,15,10,23.50
2015,06,21,15,11,23.70
2015,06,21,15,12,23.70
2015,06,21,15,13,23.70
2015,06,21,15,14,23.70
2015,06,21,15,15,23.70
2015,06,21,15,16,23.70
2015,06,21,15,17,23.70
2015,06,21,15,18,23.60
2015,06,21,15,19,23.60
2015,06,21,15,20,23.60
2015,06,21,15,21,23.70
2015,06,21,15,22,23.80
2015,06,21,15,23,23.90
2015,06,21,15,24,23.90
2015,06,21,15,25,24.00
2015,06,21,15,26,24.10
2015,06,21,15,27,24.10
2015,06,21,15,28,24.20
2015,06,21,15,29,24.20
2015,06,21,15,30,24.10
2015,06,21,15,31,24.10
2015,06,21,15,32,24.00
2015,06,21,15,33,23.90
2015,06,21,15,34,23.90
2015,06,21,15,35,23.90
2015,06,21,15,36,24.00
2015,06,21,15,37,24.10
2015,06,21,15,38,24.20
2015,06,21,15,39,24.20
2015,06,21,15,40,24.30
2015,06,21,15,41,24.20
2015,06,21,15,42,24.10
2015,06,21,15,43,24.10
2015,06,21,15,44,24.10
2015,06,21,15,45,24.20
2015,06,21,15,46,24.30
2015,06,21,15,47,24.40
2015,06,21,15,48,24.50
2015,06,21,15,49,24.60
2015,06,21,15,50,24.70
2015,06,21,15,51,24.80
2015,06,21,15,52,24.80
2015,06,21,15,53,24.80
2015,06,21,15,54,24.80
2015,06,21,15,55,24.80
2015,06,21,15,56,24.80
2015,06,21,15,57,24.70
2015,06,21,15,58,24.70
2015,06,21,15,59,24.70
2015,06,21,16,00,24.70
2015,06,21,16,01,24.70
2015,06,21,16,02,24.70
2015,06,21,16,03,24.70
2015,06,21,16,04,24.70
2015,06,21,16,05,24.80
2015,06,21,16,06,24.90
2015,06,21,16,07,24.90
2015,06,21,16,08,24.90
2015,06,21,16,09,24.90
2015,06,21,16,10,24.90
2015,06,21,16,11,24.90
2015,06,21,16,12,24.90
2015,06,21,16,13,24.90
2015,06,21,16,14,25.00
2015,06,21,16,15,25.00
2015,06,21,16,16,25.00
2015,06,21,16,17,25.00
2015,06,21,16,18,25.00
2015,06,21,16,19,25.00
2015,06,21,16,20,24.90
2015,06,21,16,21,24.90
2015,06,21,16,22,24.90
2015,06,21,16,23,24.90
2015,06,21,16,24,24.90
2015,06,21,16,25,24.90
2015,06,21,16,26,25.00
2015,06,21,16,27,25.10
2015,06,21,16,28,25.20
2015,06,21,16,29,25.20
2015,06,21,16,30,25.20
2015,06,21,16,31,25.20
2015,06,21,16,32,25.20
2015,06,21,16,33,25.30
2015,06,21,16,34,25.30
2015,06,21,16,35,25.30
2015,06,21,16,36,25.40
2015,06,21,16,37,25.40
2015,06,21,16,38,25.40
2015,06,21,16,39,25.40
2015,06,21,16,40,25.30
2015,06,21,16,41,25.30
2015,06,21,16,42,25.30
2015,06,21,16,43,25.30
2015,06,21,16,44,25.30
2015,06,21,16,45,25.20
2015,06,21,16,46,25.20
2015,06,21,16,47,25.20
2015,06,21,16,48,25.10
2015,06,21,16,49,25.20
2015,06,21,16,50,25.20
2015,06,21,16,51,25.20
2015,06,21,16,52,25.30
2015,06,21,16,53,25.30
2015,06,21,16,54,25.30
2015,06,21,16,55,25.40
2015,06,21,16,56,25.40
2015,06,21,16,57,25.40
2015,06,21,16,58,25.40
2015,06,21,16,59,25.40
2015,06,21,17,00,25.40
2015,06,21,17,01,25.40
2015,06,21,17,02,25.50
2015,06,21,17,03,25.50
2015,06,21,17,04,25.40
2015,06,21,17,05,25.40
2015,06,21,17,06,25.50
2015,06,21,17,07,25.50
2015,06,21,17,08,25.50
2015,06,21,17,09,25.60
2015,06,21,17,10,25.60
2015,06,21,17,11,25.60
2015,06,21,17,12,25.60
2015,06,21,17,13,25.60
2015,06,21,17,14,25.60
2015,06,21,17,15,25.70
2015,06,21,17,16,25.80
2015,06,21,17,17,25.90
2015,06,21,17,18,26.00
2015,06,21,17,19,26.10